Startseite
Über Mich
AHP4
Galerie
Sehschlangen
Tourenbuch
Bookmarks
Elektronik
Bewertung
Geschichten
[Tagesmessung] [Jahreswerte] [Information]

Messwerte vom 22.06.2022

Die letzten Messwerte von 23:58:48 Uhr:
KategorieMesswert
Temperatur [°C]16
Luftdruck [mBar]998
Sonneneinstrahlung0
Wind [km/h]0 aus Nordost
Niederschlag [l/m²]0
rel.Luftfeucht.54.6%
CO2 [ppm]685

Diagramme
Messwerte vom 22.06.2022
Tagesaggregation
KategorieMinimumMaximumSchnittSumme
Temperatur [°C]83519.8313
Luftdruck [mBar]995998996.9000
Sonneneinstrahlung248141.1438
Wind [km/h]15
rF [%]19.796.660.57
Niederschlag [l/m²]0
CO2 [ppm]427814596.9
Einordnung alsVegetationstag
Sommertag
Heißer Tag

Messungen an benachbarten Tagen: Zur Jahresaggregation 2022
Tabelle aller Messwerte
UhrzeitTemperatur [°C]Luftdruck [mBar]SonneWind [km/h]RichtungRegen [l/m²]rF [%]CO2 [ppm]
00:01:48 12 997 0 0 N 0 84.9 605
00:04:50 12 998 0 0 SO 0 85.2 603
00:07:51 12 997 0 0 SO 0 85.6 606
00:10:49 12 997 0 0 NW 0 88.1 605
00:13:47 12 997 0 0 NO 0 88.5 609
00:16:49 12 997 0 0 NO 0 89.3 608
00:19:48 12 997 0 0 NO 0 89.1 615
00:22:46 12 997 0 0 NO 0 88.7 618
00:25:46 12 998 0 0 NO 0 88.3 617
00:28:46 12 997 0 0 O 0 87.4 614
00:31:45 12 997 0 0 O 0 87.2 614
00:34:45 11 996 0 0 O 0 87.2 618
00:37:46 11 997 0 0 O 0 86.9 624
00:40:47 11 997 0 0 SO 0 87.3 630
00:43:47 11 998 0 0 N 0 88.1 633
00:46:48 11 997 0 0 SO 0 88.4 627
00:49:49 11 997 0 0 SO 0 88.3 635
00:52:47 11 997 0 0 SO 0 88.2 644
00:55:47 11 997 0 0 SO 0 89.5 651
00:58:46 11 997 0 0 SO 0 89.5 653
01:01:48 11 997 0 0 SO 0 90 659
01:04:46 11 997 0 0 SO 0 90.1 660
01:07:47 11 998 0 0 SO 0 89.9 664
01:10:50 11 998 0 0 SO 0 90.9 662
01:13:45 11 997 0 0 N 0 91.5 668
01:16:46 11 997 0 0 N 0 91.4 668
01:19:45 11 997 0 0 N 0 91.2 676
01:22:47 11 998 0 0 N 0 90.8 677
01:25:45 11 998 0 0 N 0 90.9 679
01:28:49 10 998 0 0 NO 0 91 674
01:31:45 10 998 0 0 SO 0 91.3 685
01:34:47 10 998 0 0 SO 0 91.2 682
01:37:46 10 997 0 0 SO 0 91.6 685
01:40:47 10 998 0 0 SO 0 92.4 684
01:43:46 11 998 0 0 N 0 93.9 692
01:46:47 11 998 0 0 N 0 93.9 691
01:49:49 11 998 0 0 N 0 93.9 688
01:52:46 11 998 0 0 N 0 94.3 695
01:55:47 10 998 0 0 O 0 93.1 693
01:58:47 10 998 0 0 O 0 92.8 697
02:01:47 10 997 0 0 O 0 92.6 697
02:04:46 10 998 0 0 O 0 92.6 700
02:07:46 10 998 0 0 O 0 92.6 702
02:10:47 10 997 0 0 SO 0 93.3 702
02:13:46 10 998 0 0 NO 0 93.9 705
02:16:48 10 998 0 0 N 0 94.1 703
02:19:46 10 998 0 0 N 0 94.5 710
02:22:46 10 998 0 0 N 0 94.6 712
02:25:47 10 998 0 0 N 0 94.2 718
02:28:47 10 998 0 2 NW 0 94.3 718
02:31:46 10 997 0 1 N 0 95.2 709
02:34:47 10 998 0 0 NO 0 95.2 712
02:37:48 10 998 0 1 NO 0 95.2 715
02:40:47 10 998 0 0 O 0 95.5 723
02:43:46 10 998 0 0 O 0 95.3 726
02:46:45 10 997 0 0 O 0 94.9 719
02:49:46 10 997 0 0 O 0 94.6 719
02:52:46 10 998 0 0 SO 0 94.4 727
02:55:48 10 998 0 0 SO 0 94.3 723
02:58:51 9 997 0 0 SO 0 94.6 727
03:01:46 9 997 0 0 S 0 94.8 723
03:04:46 9 998 0 0 S 0 94.6 729
03:07:45 9 997 0 0 S 0 94.7 729
03:10:47 9 997 0 0 S 0 94.9 732
03:13:48 9 997 0 0 S 0 94.8 730
03:16:45 9 997 0 0 S 0 94.6 729
03:19:48 9 998 0 0 S 0 94.6 730
03:22:45 9 997 0 0 S 0 94.5 735
03:25:46 9 998 0 0 S 0 94.6 732
03:28:47 9 997 0 0 S 0 94.9 739
03:31:47 9 998 0 0 S 0 94.8 739
03:34:50 9 998 0 0 S 0 94.6 739
03:37:49 9 998 0 0 S 0 94.7 741
03:40:45 9 997 0 0 S 0 94.8 741
03:43:45 9 998 0 0 S 0 95 741
03:46:47 9 998 0 0 S 0 94.8 743
03:49:46 9 998 0 0 S 0 94.9 738
03:52:45 9 997 0 0 N 0 95.4 738
03:55:45 9 997 0 0 N 0 95.9 737
03:58:45 9 996 0 0 N 0 96.2 735
04:01:47 9 997 0 0 N 0 96.1 738
04:04:46 9 998 0 0 N 0 96 743
04:07:47 9 998 0 0 N 0 95.8 750
04:10:49 9 998 0 0 N 0 96.2 756
04:13:47 9 998 0 0 N 0 96.4 750
04:16:45 9 997 0 0 N 0 96.6 747
04:19:44 9 997 3 0 N 0 96.6 747
04:22:46 9 997 4 0 N 0 96.5 754
04:25:45 9 998 5 0 N 0 96.6 755
04:28:46 9 997 8 0 N 0 96.5 759
04:31:45 8 997 10 0 N 0 96.5 755
04:34:44 8 997 14 0 N 0 96.5 758
04:37:48 8 997 19 0 N 0 96.3 764
04:40:47 8 997 25 0 N 0 96.2 762
04:43:46 8 996 31 0 N 0 96.4 757
04:46:46 8 996 39 0 N 0 96.6 761
04:49:46 8 997 47 0 N 0 96.6 755
04:52:46 8 996 57 0 N 0 96.6 749
04:55:46 8 997 67 0 N 0 96.6 745
04:58:45 8 997 76 0 S 0 96.6 756
05:01:49 8 996 86 0 S 0 96.6 764
05:04:47 8 997 94 0 O 0 96.6 763
05:07:47 8 996 102 0 O 0 96.6 761
05:10:48 8 997 109 0 SO 0 96.6 757
05:13:47 8 996 115 0 SO 0 96.6 762
05:16:49 8 996 121 0 NW 0 96.6 761
05:19:47 8 997 127 0 NW 0 96.6 764
05:22:52 8 996 132 0 NW 0 96.6 767
05:25:48 8 996 136 0 NW 0 96.6 767
05:28:49 8 997 140 0 NW 0 96.6 762
05:31:50 8 997 143 0 NW 0 96.6 776
05:34:48 8 997 147 0 NW 0 96.6 773
05:37:46 8 996 150 0 O 0 96.6 781
05:40:49 8 997 152 0 O 0 96.6 775
05:43:50 8 997 155 0 O 0 96.6 784
05:46:47 8 997 157 0 O 0 96.6 781
05:49:48 8 996 158 0 NW 0 96.6 779
05:52:51 9 997 160 0 NW 0 96.6 782
05:55:48 9 997 162 0 S 0 96.6 787
05:58:47 9 997 163 0 SO 0 96.6 790
06:01:51 9 997 163 0 SO 0 96.6 795
06:04:50 9 998 164 0 SO 0 96.6 796
06:07:49 9 996 167 0 SO 0 96.6 803
06:10:48 8 997 169 0 SO 0 96.6 797
06:13:48 8 997 170 0 SO 0 96.6 793
06:16:50 9 997 171 0 SO 0 96.6 795
06:19:50 9 997 172 0 SO 0 96.6 791
06:22:48 9 997 173 0 N 0 96.6 790
06:25:48 9 997 173 0 NW 0 96.6 793
06:28:48 9 998 174 0 N 0 96.6 800
06:31:47 9 997 174 0 N 0 96.6 802
06:34:46 9 997 175 0 N 0 96.6 804
06:37:47 9 998 176 0 S 0 96.6 810
06:40:47 9 997 177 0 S 0 96.6 808
06:43:47 10 997 178 0 N 0 96.6 806
06:46:46 10 998 178 0 N 0 96.6 814
06:49:48 10 997 179 0 SO 0 96.6 805
06:52:47 10 997 179 0 SO 0 96.6 790
06:55:49 10 997 179 0 SO 0 96.6 770
06:58:45 10 997 180 0 S 0 96.6 746
07:01:48 10 998 180 0 S 0 96.6 729
07:04:47 10 998 181 0 O 0 96.6 723
07:07:48 11 997 180 0 SW 0 96.6 705
07:10:49 11 997 180 0 SW 0 96.6 718
07:13:50 11 997 131 0 SW 0 96.5 662
07:16:48 12 997 132 0 SW 0 96.5 512
07:19:48 12 998 132 0 SW 0 96.4 507
07:22:50 12 998 133 0 SO 0 95.5 538
07:25:49 12 998 134 0 S 0 95.4 551
07:28:52 12 997 181 0 SW 0 95.4 532
07:31:49 14 997 181 0 SW 0 95.3 529
07:34:50 15 997 182 0 SW 0 91.7 536
07:37:46 17 998 181 0 S 0 87.9 517
07:40:47 17 998 181 0 S 0 86.1 504
07:43:50 18 998 181 0 SW 0 83.8 491
07:46:31 15 997 182 0 SW 0 76.8 483
07:49:50 20 998 182 1 SW 0 74.7 486
07:52:31 16 998 182 0 S 0 67.7 480
07:55:31 16 997 182 0 S 0 60.7 480
07:58:49 21 997 182 0 S 0 66 504
08:01:51 22 998 182 0 SW 0 65.1 503
08:04:49 22 997 182 0 SW 0 64.5 506
08:07:49 23 998 182 0 SW 0 64 511
08:10:49 23 998 182 0 SW 0 61.2 503
08:13:50 21 998 182 1 SW 0 61.6 497
08:16:50 20 997 182 0 NW 0 65.4 501
08:19:51 19 998 182 0 S 0 68.6 503
08:22:47 18 998 182 0 SW 0 71.5 506
08:25:48 17 998 182 3 NW 0 74 512
08:28:49 17 998 183 0 W 0 76.3 509
08:31:47 17 998 182 2 NW 0 77.4 506
08:34:48 17 997 182 4 NW 0 78.1 512
08:37:47 17 997 183 3 N 0 79.1 512
08:40:48 17 998 183 2 N 0 80.2 514
08:43:52 17 998 183 2 SO 0 80 512
08:46:49 17 997 183 0 NW 0 80.5 515
08:49:51 17 998 183 1 N 0 80.6 510
08:52:48 17 998 184 0 S 0 80.5 506
08:55:52 17 998 183 2 NW 0 80.9 506
08:58:49 17 998 184 0 SO 0 81.3 506
09:01:48 17 997 185 4 NW 0 81.8 509
09:04:49 17 997 185 2 NW 0 80.8 506
09:07:49 17 998 185 3 NW 0 81.1 500
09:10:47 17 998 186 3 N 0 80.6 497
09:13:49 17 998 186 3 NW 0 80.2 497
09:16:48 18 997 186 5 N 0 79 492
09:19:47 18 998 186 8 N 0 78.3 497
09:22:49 18 998 187 3 NW 0 77.3 500
09:25:48 18 997 187 1 N 0 76.3 504
09:28:30 17 998 187 4 NO 0 69.3 503
09:31:49 18 997 187 5 NW 0 72.3 506
09:34:48 18 997 187 3 NW 0 72 510
09:37:47 19 997 187 7 N 0 70.6 505
09:40:48 19 997 187 2 O 0 69.8 503
09:43:46 19 998 187 3 N 0 68.8 504
09:46:48 19 998 187 4 NO 0 68.8 500
09:49:49 19 997 187 7 N 0 66.2 500
09:52:47 19 997 187 6 N 0 66.1 504
09:55:49 19 997 188 2 NW 0 66.4 509
09:58:47 19 997 187 5 N 0 66.3 503
10:01:49 19 997 188 3 NW 0 65.3 499
10:04:47 19 997 188 3 NW 0 64.3 489
10:07:49 19 997 188 12 N 0 64.6 497
10:10:49 19 998 188 3 NW 0 62.7 503
10:13:48 19 997 188 6 N 0 62.4 500
10:16:48 20 998 188 4 NW 0 62.3 504
10:19:47 20 997 188 1 O 0 63.7 500
10:22:50 20 997 188 6 NW 0 63.3 497
10:25:48 20 998 189 8 N 0 63.2 500
10:28:48 20 997 189 5 N 0 61.9 498
10:31:49 20 997 189 2 NW 0 61.1 504
10:34:47 20 997 189 1 NW 0 61.7 489
10:37:50 20 997 189 4 NO 0 60.3 492
10:40:50 20 997 190 2 NW 0 59.8 489
10:43:47 20 997 190 7 N 0 59.3 497
10:46:47 20 998 190 4 NW 0 57.6 491
10:49:49 20 998 191 8 NW 0 57.7 495
10:52:47 21 998 192 1 N 0 55.6 489
10:55:48 21 997 191 2 NO 0 55.4 491
10:58:46 21 998 192 3 S 0 56.1 491
11:01:48 21 997 192 8 W 0 55.4 501
11:04:48 21 997 193 0 O 0 55.8 503
11:07:48 21 997 193 3 NO 0 56.7 500
11:10:48 21 997 193 4 NO 0 54.3 498
11:13:46 21 998 193 4 N 0 54 500
11:16:47 21 997 194 4 NW 0 54.3 497
11:19:48 21 997 194 4 NW 0 54.4 491
11:22:46 21 997 195 1 NW 0 54.5 492
11:25:48 22 997 195 0 S 0 54.8 492
11:28:46 22 998 195 3 N 0 55.1 492
11:31:47 22 998 196 7 N 0 52.1 492
11:34:46 22 997 197 3 S 0 50.5 488
11:37:47 22 997 197 4 NW 0 51.6 491
11:40:51 22 997 198 7 NW 0 51.4 492
11:43:51 22 998 199 4 SW 0 50.6 490
11:46:48 23 998 200 7 NW 0 46.8 483
11:49:48 23 997 201 1 S 0 48 480
11:52:48 23 998 201 1 S 0 48.4 479
11:55:49 24 997 201 5 SO 0 50 491
11:58:49 25 998 202 2 S 0 47.7 487
12:01:48 25 997 203 5 W 0 44.4 489
12:04:49 25 997 204 6 NW 0 43.9 482
12:07:49 25 998 206 4 S 0 42.9 483
12:10:50 26 998 208 7 NW 0 40.9 480
12:13:47 26 997 210 0 S 0 43.1 485
12:16:46 26 998 211 2 0 43.5 485
12:19:50 26 998 212 1 SW 0 43.6 478
12:22:47 27 998 213 5 N 0 38.4 483
12:25:49 27 998 214 6 NO 0 37.8 483
12:28:48 26 998 215 15 W 0 37.1 489
12:31:46 26 997 216 3 N 0 38.5 486
12:34:47 26 997 218 7 NW 0 39.2 486
12:37:49 26 997 219 2 SW 0 40.2 486
12:40:48 26 998 221 3 S 0 40 483
12:43:48 27 998 221 3 NW 0 41 486
12:46:48 27 998 222 2 S 0 40.2 483
12:49:50 27 997 222 2 NW 0 38.9 484
12:52:51 27 998 221 2 N 0 38.5 474
12:55:48 27 997 222 3 SW 0 38.7 480
12:58:47 27 997 223 5 W 0 38.5 483
13:01:47 26 997 221 1 NW 0 39.9 480
13:04:51 26 998 220 4 W 0 39.6 483
13:07:50 26 997 221 0 NW 0 39.4 477
13:10:48 26 998 220 2 S 0 38.1 474
13:13:48 25 998 221 2 S 0 38.4 477
13:16:49 25 998 220 0 NW 0 38.5 478
13:19:46 25 998 218 6 N 0 38.9 476
13:22:49 26 997 215 0 NW 0 39.3 474
13:25:47 26 997 213 0 S 0 39.3 480
13:28:49 27 998 214 2 SO 0 37.4 474
13:31:48 28 998 215 1 S 0 36.6 477
13:34:48 29 998 215 0 O 0 37.3 474
13:37:35 26 997 215 8 NW 0 40 474
13:40:48 30 997 215 0 W 0 34.3 474
13:43:50 29 998 217 7 NW 0 31.4 466
13:46:46 29 998 219 5 S 0 32.6 471
13:49:47 30 998 221 2 SW 0 34.4 474
13:52:49 29 998 222 0 O 0 34.8 477
13:55:49 29 998 223 2 W 0 32.5 477
13:58:50 29 997 224 1 NW 0 36 483
14:01:48 29 998 225 2 S 0 33 480
14:04:47 30 997 227 12 SO 0 32.3 474
14:07:48 30 998 228 1 SW 0 31.8 471
14:10:47 30 997 228 11 N 0 31 471
14:13:49 29 998 229 5 W 0 30.8 467
14:16:49 29 997 234 10 NW 0 31.8 461
14:19:48 27 997 237 5 NO 0 32.9 459
14:22:47 27 997 238 6 S 0 35.6 462
14:25:48 28 997 239 6 W 0 33.7 465
14:28:50 29 997 239 6 SW 0 33.9 465
14:31:52 30 996 240 2 NW 0 32.8 464
14:34:46 30 997 241 5 NW 0 32.6 466
14:37:48 30 997 241 3 W 0 31.7 469
14:40:47 30 996 241 3 SW 0 31.7 471
14:43:30 29 996 242 3 W 0 40 462
14:46:49 31 997 242 3 SW 0 30.1 460
14:49:47 31 997 242 0 SO 0 30.4 457
14:52:47 30 997 242 4 N 0 30 456
14:55:48 29 997 243 4 S 0 29.5 454
14:58:47 30 997 243 5 S 0 29.6 457
15:01:48 30 997 243 0 W 0 30.2 459
15:04:49 31 997 244 1 SO 0 30.1 461
15:07:50 31 996 244 5 SO 0 29.2 462
15:10:50 31 997 244 2 NW 0 28.4 459
15:13:47 31 997 244 4 S 0 28.5 454
15:16:48 32 996 244 5 S 0 28.5 451
15:19:48 32 996 244 4 O 0 29.8 459
15:22:49 32 996 245 5 SO 0 26.8 456
15:25:48 32 996 245 3 SO 0 26.4 453
15:28:47 32 997 245 3 S 0 26.3 451
15:31:49 31 996 245 4 NW 0 27.2 459
15:34:49 31 996 245 0 SW 0 29.6 456
15:37:48 31 996 246 5 NW 0 30.3 456
15:40:34 30 997 245 6 NW 0 40 456
15:43:50 30 996 246 5 SW 0 29.5 453
15:46:48 30 996 246 6 SW 0 29.3 454
15:49:49 30 996 246 3 S 0 29.8 456
15:52:47 30 996 246 5 S 0 29.8 459
15:55:49 30 996 246 4 SO 0 29.4 456
15:58:49 31 996 246 1 SW 0 29.3 456
16:01:50 32 996 246 2 NW 0 29.7 450
16:04:50 32 996 246 2 SW 0 27.5 445
16:07:52 32 996 246 6 SW 0 26.7 452
16:10:47 32 996 246 3 SO 0 25.9 447
16:13:47 32 996 246 4 SO 0 26.4 444
16:16:47 32 996 247 6 S 0 26.4 447
16:19:49 32 996 247 4 S 0 24.9 452
16:22:48 32 996 247 4 S 0 26.5 448
16:25:48 32 996 247 1 SO 0 26.4 442
16:28:49 33 996 247 8 NW 0 26.1 445
16:31:51 33 996 247 0 SW 0 25.5 439
16:34:53 33 996 247 1 SW 0 25.9 439
16:37:50 33 995 247 1 O 0 24.5 436
16:40:48 33 996 247 2 SW 0 24.9 436
16:43:47 33 995 247 3 W 0 25.2 439
16:46:48 34 996 247 0 NW 0 24.9 433
16:49:48 34 995 247 3 W 0 22.9 436
16:52:47 34 996 247 0 SO 0 22.6 432
16:55:47 33 996 247 1 NW 0 23.2 433
16:58:49 33 996 247 3 N 0 23.8 427
17:01:31 33 996 247 2 S 0 31.9 429
17:04:47 34 995 248 3 SW 0 24.4 430
17:07:47 34 995 211 2 S 0 23 433
17:10:47 34 996 247 1 S 0 23 433
17:13:47 34 996 247 1 NW 0 23.1 436
17:16:49 34 996 247 2 NO 0 23.9 436
17:19:46 33 996 247 4 SW 0 23.1 436
17:22:49 34 995 248 3 SO 0 23.6 448
17:25:49 34 995 247 4 SO 0 23 450
17:28:50 34 996 247 8 S 0 22 459
17:31:50 34 995 247 4 SW 0 22.8 474
17:34:47 35 995 247 2 NO 0 23.4 486
17:37:49 34 995 247 3 NO 0 22.2 491
17:40:51 33 996 247 2 SO 0 23.2 495
17:43:47 34 996 247 4 NO 0 23.7 498
17:46:48 35 996 247 4 NO 0 23.5 509
17:49:46 35 995 247 0 O 0 23.5 512
17:52:49 35 996 247 5 SO 0 23.2 525
17:55:47 35 995 248 0 S 0 23.3 523
17:58:47 35 995 247 0 O 0 22.9 536
18:01:48 35 996 247 1 SO 0 23.2 539
18:04:45 35 995 247 6 S 0 21.6 547
18:07:50 35 995 247 4 SW 0 21.4 553
18:10:47 35 996 247 1 O 0 21.6 559
18:13:46 35 996 247 2 S 0 21.3 570
18:16:51 35 995 247 4 NW 0 20.2 583
18:19:49 35 996 247 3 NW 0 20.6 583
18:22:48 34 996 247 7 SO 0 19.7 591
18:25:47 34 996 248 0 S 0 21.5 597
18:28:48 34 996 247 6 S 0 21.7 610
18:31:48 34 995 247 0 O 0 21 615
18:34:46 34 995 247 4 N 0 21.1 618
18:37:47 33 995 247 4 N 0 21.8 627
18:40:50 32 995 247 2 SO 0 22.4 627
18:43:50 33 996 247 0 SO 0 23.3 630
18:46:50 34 995 247 1 SW 0 22.8 642
18:49:47 34 995 247 1 NO 0 22.4 644
18:52:48 32 995 247 0 S 0 22.4 648
18:55:51 31 996 239 2 SW 0 24.8 650
18:58:48 29 995 231 3 O 0 25.2 658
19:01:47 28 995 216 1 NW 0 25.8 670
19:04:47 27 996 222 0 N 0 27.8 682
19:07:48 27 995 215 0 O 0 29.6 695
19:10:49 26 996 207 2 N 0 30.4 697
19:13:49 26 996 206 2 NO 0 30.8 702
19:16:48 25 996 205 0 NW 0 31.1 700
19:19:49 25 996 204 0 NW 0 32.3 697
19:22:47 25 996 205 0 O 0 33.6 692
19:25:49 25 996 223 0 N 0 35.6 682
19:28:48 25 996 232 0 O 0 36.1 669
19:31:47 25 996 220 1 O 0 35.4 666
19:34:46 25 996 201 0 O 0 35.4 659
19:37:47 24 996 205 0 O 0 36.4 667
19:40:47 24 995 203 1 O 0 36.9 668
19:43:48 24 996 199 3 O 0 37.9 667
19:46:49 24 996 198 4 NO 0 38.6 666
19:49:53 24 996 196 0 SO 0 39.9 661
19:52:48 24 996 195 2 N 0 39.7 663
19:55:47 24 996 194 3 N 0 38.8 655
19:58:49 24 996 107 0 NO 0 39.4 658
20:01:48 23 996 192 1 O 0 39.3 634
20:04:48 23 996 191 0 O 0 40 671
20:07:48 23 996 190 0 O 0 40.9 671
20:10:50 23 996 189 1 NW 0 41.2 682
20:13:47 23 996 188 1 N 0 41.7 673
20:16:50 23 996 187 0 NO 0 42.5 678
20:19:48 23 996 135 1 N 0 42.9 667
20:22:48 23 996 184 0 NO 0 42.9 667
20:25:49 23 996 183 0 N 0 42.5 666
20:28:51 22 996 181 0 SO 0 42.6 659
20:31:49 22 996 180 0 SO 0 42.6 642
20:34:49 22 996 178 0 SO 0 43.2 627
20:37:48 22 995 176 1 NO 0 43.9 624
20:40:50 22 996 174 0 NO 0 44.3 630
20:43:49 22 996 172 0 SO 0 44.4 635
20:46:49 22 996 170 0 O 0 44.5 638
20:49:46 21 995 167 0 O 0 45 630
20:52:47 21 996 165 0 O 0 45.7 635
20:55:48 21 996 162 0 O 0 48 630
20:58:48 21 996 159 1 0 48.6 629
21:01:47 21 995 156 1 O 0 49.5 621
21:04:48 21 996 152 0 O 0 49.2 630
21:07:48 21 996 149 0 O 0 48.4 639
21:10:50 21 996 145 0 O 0 47.7 633
21:13:46 21 996 88 0 O 0 47.7 630
21:16:51 21 996 136 0 NO 0 47.7 626
21:19:51 21 996 130 0 NO 0 47.7 627
21:22:50 21 996 124 0 NW 0 47.8 618
21:25:48 20 996 118 1 NO 0 48.1 614
21:28:47 20 996 111 0 NO 0 48.4 624
21:31:49 20 996 104 0 NO 0 48.7 626
21:34:48 20 996 96 0 W 0 49.2 629
21:37:47 20 996 86 0 NO 0 50 636
21:40:48 20 997 78 1 NO 0 51.5 644
21:43:47 20 996 69 1 NO 0 51.7 646
21:46:48 20 997 61 1 O 0 51.5 653
21:49:50 19 997 52 0 N 0 51.5 661
21:52:46 19 996 43 1 O 0 51.5 656
21:55:47 19 996 36 1 NO 0 51.5 661
21:58:47 19 997 29 0 NO 0 51.9 662
22:01:48 19 997 23 0 NO 0 52.3 658
22:04:48 19 997 18 0 NO 0 52.8 653
22:07:52 19 997 14 0 SO 0 53.7 662
22:10:48 19 997 10 2 O 0 54.4 656
22:13:46 19 997 7 1 O 0 54.7 652
22:16:47 18 997 5 0 O 0 54.8 651
22:19:48 18 997 3 0 NO 0 54.6 644
22:22:50 18 996 0 1 NO 0 54.7 640
22:25:46 18 997 0 0 O 0 54.9 633
22:28:47 18 996 0 0 O 0 54.7 633
22:31:46 18 997 0 0 O 0 54.5 636
22:34:46 18 996 0 0 O 0 54.6 635
22:37:44 18 997 0 0 O 0 55.2 632
22:40:47 18 997 0 0 O 0 55.7 630
22:43:45 17 998 0 0 O 0 55.8 634
22:46:46 17 997 0 0 O 0 56.6 641
22:49:48 17 997 0 0 O 0 57 645
22:52:46 17 997 0 0 O 0 58.2 647
22:55:45 16 998 0 0 O 0 58.6 660
22:58:49 16 997 0 0 NO 0 58.2 669
23:01:48 16 997 0 0 SO 0 57.5 670
23:04:47 16 997 0 0 SO 0 57 674
23:07:46 16 997 0 0 O 0 56.4 676
23:10:47 16 998 0 0 NO 0 56 682
23:13:47 16 997 0 0 O 0 55.2 690
23:16:45 16 997 0 2 N 0 54.8 692
23:19:46 16 997 0 1 NO 0 55.1 697
23:22:45 16 997 0 1 O 0 55 691
23:25:48 17 997 0 0 O 0 54.4 692
23:28:46 17 997 0 1 O 0 53.7 689
23:31:47 17 997 0 2 NO 0 53.1 706
23:34:46 17 997 0 1 NO 0 52.4 718
23:37:46 17 998 0 2 NO 0 51.9 711
23:40:46 17 998 0 1 O 0 51.5 712
23:43:47 17 998 0 0 NO 0 51.7 711
23:46:47 17 997 0 0 NO 0 52.3 711
23:49:45 17 997 0 1 NO 0 53.1 705
23:52:46 17 998 0 0 O 0 53.8 697
23:55:46 17 998 0 0 NO 0 54.2 692
23:58:48 16 998 0 0 NO 0 54.6 685

Letzte Änderung : 04-Jan-2022
Copyright Jens Köhler, Wolfsburg, Obere Dorfstraße 10d